User: anonymous   Login
Location: ??????
(55.6500°N, 37.8000°E)
Time: 15:43:05
(UTC+00:00)
Language:

ATLAS 5 CENTAUR R/B - Orbit

View from above orbital plane
View from above orbital plane
View from above satellite
View from above satellite

Ground track
Ground track

The orbit data is extracted from the following two-line orbital elements,

1 31702U 07027B   24173.75309578  .00005392  00000-0  46630-3 0  9991
2 31702  63.3297 279.4384 0522513  32.7245 330.5076 14.29577600  6183
Epoch (UTC): 21 June 2024 18:04:27
Eccentricity: 0.0522513
inclination: 63.3297°
perigee height: 418 km
apogee height: 1168 km
right ascension of ascending node: 279.4384°
argument of perigee: 32.7245°
revolutions per day: 14.29577600
mean anomaly at epoch: 330.5076°
orbit number at epoch: 618

The dashed part of the orbit path shows where the satellite is in the earth's shadow,  

DLR